weather.gov     
National Weather Service

Terminal Aerodrome Forecast
NWS Homepage
This page is being discontinued on March 12, 2014.
The same data is available at this site. Please update your bookmarks.
Thank you, and we apologize for the inconvenience.
Please send an email to SR-SRH.Webmaster@noaa.gov with any concerns.


Current Version
Previous Version:    01  02  03  04  05  06  07  08  09  10  11  12  13  14  
[Printable]
332
FTUS41 KCAR 252343
TAFCAR
TAF
KCAR 252343Z 2600/2624 23010G20KT P6SM BKN050
     FM260500 25010KT P6SM BKN120
     FM262200 36006KT 6SM -SN OVC050=




332
FTUS41 KCAR 252343
TAFCAR
TAF
KCAR 252343Z 2600/2624 23010G20KT P6SM BKN050
     FM260500 25010KT P6SM BKN120
     FM262200 36006KT 6SM -SN OVC050=


U.S. Dept. of Commerce
NOAA National Weather Service
1325 East West Highway
Silver Spring, MD 20910
E-mail: w-nws.webmaster@noaa.gov
Page last modified: May 16, 2007
NATIONAL WEATHER SERVICE: for Safety, for Work, for Fun - FOR LIFE